Observations

BIA Manual Entry


Date Temp Humidity Rainfall Dew Point Wind Direction Wind Speed Wind Pressure Condition Visibility
2025-05-23 10:59:14 31 67 0 25 320 3.8 1008 Cloudy 20 KM
2025-05-23 09:59:15 31 66 0.0 24 210 5.7 1008 Partly Cloudy (Day) 20 KM
2025-05-23 08:58:49 29 76 0.0 25 190 5.7 1009 Partly Cloudy (Day) 20 KM
2025-05-23 08:01:19 27 86 25 200 5.7 1008 Partly Cloudy (Day) 20 km
2025-05-23 07:15:08 26 94 25 220 5.7 1008 Partly Cloudy (Day) 10 km
2025-05-23 06:00:50 25 95 24 200 1.9 1007 Partly Cloudy (Day) 10 km
2025-05-23 05:00:15 26 94 25 220 5.7 1007 Partly Cloudy (Night) 10 km
2025-05-23 04:00:11 26 95 25 200 5.7 1007 Partly Cloudy (Night) 10 km
2025-05-23 03:02:52 26 94 25 190 3.8 1006 Partly Cloudy (Night) 10 km
2025-05-23 02:00:07 26 93 0.00 25 220 3.8 1007 Cloudy 10 KM
2025-05-23 00:59:30 27 91 0.00 25 230 3.8 1007 Cloudy 10 KM
2025-05-22 23:59:26 27 90 0.00 25 200 7.6 1008 Cloudy 10 KM
2025-05-22 22:59:42 27 90 0.00 25 150 3.8 1008 Cloudy 10 KM
2025-05-22 21:59:32 28 87 0.00 25 260 1.9 1008 Cloudy 10 KM
2025-05-22 20:58:21 29 79 25 180 1.9 1008 Lightning 10 KM
2025-05-22 19:59:24 29 77 25 320 5.7 1008 Lightning 10 KM
2025-05-22 18:54:58 30 75 25 330 3.8 1007 Lightning 10 KM
2025-05-22 18:01:04 31 70 25 330 9.5 1006 Partly Cloudy (Day) 15 KM
2025-05-22 16:58:07 31 69 0.0 25 320 7.00 1006 Partly Cloudy (Day) 10 KM
2025-05-22 15:58:06 31 69 0.0 25 320 7.0 1005 Partly Cloudy (Day) 10 KM
2025-05-22 14:59:03 32 63 0.0 24 340 7.0 1006 Distant showers 10 KM
2025-05-22 13:58:37 33 58 0.0 23 350 8.0 1006 Distant showers 10 KM
2025-05-22 13:01:38 32 65 25 360 11.4 1007 Distant showers 15 KM
2025-05-22 12:00:48 32 65 24 340 9.5 1008 Distant showers 15 KM
2025-05-22 11:00:47 32 68 25 030 11.4 1009 Distant showers 15 KM